This is the latest recevied weather packets stored in our database for station/object M0HPP-13. If no packets are shown the sender has not sent any weather packets the latest 10 day(s).
| Time | Temp. | Humidity | Pressure | Rain* | Wind** | Luminosity | Snow |
|---|---|---|---|---|---|---|---|
| 1777477819 | 12.78° C | 72% | 1028.3 hPa | 0 mm | - | 408 W/m² | - |
| 1777477219 | 12.78° C | 72% | 1028.3 hPa | 0 mm | - | 423 W/m² | - |
| 1777476619 | 12.78° C | 74% | 1028.4 hPa | 0 mm | - | 437 W/m² | - |
| 1777476019 | 12.78° C | 77% | 1028.5 hPa | 0 mm | - | 451 W/m² | - |
| 1777475419 | 12.22° C | 76% | 1028.5 hPa | 0 mm | - | 464 W/m² | - |
| 1777474819 | 12.22° C | 74% | 1028.5 hPa | 0 mm | - | 478 W/m² | - |
| 1777474219 | 12.78° C | 74% | 1028.6 hPa | 0 mm | - | 489 W/m² | - |
| 1777473619 | 12.78° C | 73% | 1028.7 hPa | 0 mm | - | 498 W/m² | - |
| 1777473019 | 12.78° C | 70% | 1028.8 hPa | 0 mm | - | 472 W/m² | - |
| 1777472419 | 13.33° C | 67% | 1029 hPa | 0 mm | - | 514 W/m² | - |
| 1777471819 | 13.89° C | 64% | 1029 hPa | 0 mm | - | 536 W/m² | - |
| 1777471219 | 13.89° C | 67% | 1029 hPa | 0 mm | - | 544 W/m² | - |
| 1777470619 | 13.89° C | 67% | 1029.1 hPa | 0 mm | - | 551 W/m² | - |
| 1777470019 | 13.89° C | 67% | 1029.1 hPa | 0 mm | - | 557 W/m² | - |
| 1777469419 | 14.44° C | 66% | 1029.1 hPa | 0 mm | - | 562 W/m² | - |
| 1777468819 | 14.44° C | 68% | 1029.2 hPa | 0 mm | - | 566 W/m² | - |
| 1777468219 | 14.44° C | 68% | 1029.2 hPa | 0 mm | - | 569 W/m² | - |
| 1777467619 | 13.89° C | 64% | 1029.4 hPa | 0 mm | - | 572 W/m² | - |
| 1777467019 | 13.89° C | 69% | 1029.5 hPa | 0 mm | - | 574 W/m² | - |
| 1777466419 | 13.89° C | 70% | 1029.6 hPa | 0 mm | - | 574 W/m² | - |
| 1777465819 | 13.33° C | 70% | 1029.5 hPa | 0 mm | - | 571 W/m² | - |
| 1777465219 | 12.78° C | 71% | 1029.5 hPa | 0 mm | - | 523 W/m² | - |
| 1777464619 | 13.33° C | 71% | 1029.6 hPa | 0 mm | - | 316 W/m² | - |
| 1777464019 | 13.33° C | 72% | 1029.6 hPa | 0 mm | - | 547 W/m² | - |
| 1777463419 | 13.33° C | 72% | 1029.6 hPa | 0 mm | - | 560 W/m² | - |
* Rain latest hour (hover to see other rain measurements)
** Current wind speed in m/s (hover to see current wind gust speed)